Погода в Репном

Россия / Саратовская область     51°35′15″N   43°10′37″E
темп.,
°C
ветер,
м/с
пор.,
м/с
влажн.,
%
обл.,
%
осадки,
мм/ч
давл.,
гПа
погр.,
м
19 сентября, вс
вс1901:00+9юв3750100 0.1 1022401
04:00+9вюв41047100 0.2 1021519
07:00+10вюв61150100 0.0 1021479
10:00+11вюв71042100 0.0 1021581
13:00+15вюв81036100 0.0 1020964
16:00+16вюв71036100 0.0 10191377
19:00+14вюв91436100 0.0 1018773
22:00+13вюв101734100 0.0 1017832
20 сентября, пн
пн2001:00+13вюв91736100 0.2 1016767
04:00+9вюв91866100 2.1 1015650
07:00+8вюв101974100 5.4 1014715
10:00+8юв91877100 11.0 1013738
13:00+9юв81587100 4.7 1014677
16:00+9юв81484100 4.9 1014576
19:00+10юв71481100 0.0 1013488
22:00+10юв71382100 0.9 1014436
21 сентября, вт
вт2101:00+10юв512907 0.4 1014324
04:00+9юв5119162 0.6 1013257
07:00+9вюв3694100 0.4 1013173
10:00+12вюв4678100 1.1 1013354
13:00+17ю34649 0.1 1012872
16:00+19ююз3549100 0.1 10101793
19:00+15юз1163100 0.1 101010
22:00+14ююз4872100 0.3 1010293
22 сентября, ср
ср2201:00+13ю4774100 0.0 1010241
04:00+11юз248077 0.1 1010185
07:00+8зюз379311 0.0 1010175
10:00+12зюз457440 0.0 1011692
13:00+13зюз556099 0.1 10121445
16:00+13зюз345396 0.1 10131501
19:00+12зюз3562100 0.1 1014234
22:00+10з2471100 0.1 1016272
23 сентября, чт
чт2301:00+10с1172100 0.0 101643
04:00+10вюв1171100 0.0 101622
07:00+10юв2272100 0.0 101657
10:00+11юв1268100 0.0 1017227
13:00+13юв2356100 0.0 1017810
16:00+15ююв2444100 0.0 10161676
19:00+12сз2254100 0.0 101613
22:00+11ссв4763100 0.0 1015133